W7TJC Weather Reports


time (UTC)temp
C
wind
direction
speed
KPH
gust
KPH
rain 1hr
cm
rain 24hr
cm
rain mn
cm
humidity
%
barometer
mb
20260505122208 11 173 0.0 0.0 0.00 0.00 0.00 87 1015.2
20260505121704 11 122 0.0 0.0 0.00 0.00 0.00 88 1015.1
20260505121201 11 144 0.0 0.0 0.00 0.00 0.00 88 1015.1
20260505120657 11 127 0.0 0.0 0.00 0.00 0.00 88 1015.2
20260505120153 11 106 0.0 0.0 0.00 0.00 0.00 88 1015.3
20260505115647 11 205 1.6 3.2 0.00 0.00 0.00 88 1015.1
20260505115145 11 186 0.0 1.6 0.00 0.00 0.00 88 1015.2
20260505114642 11 172 0.0 0.0 0.00 0.00 0.00 88 1015.0
20260505114138 11 128 0.0 0.0 0.00 0.00 0.00 88 1014.9
20260505113635 11 131 0.0 0.0 0.00 0.00 0.00 88 1015.2
20260505113131 11 125 1.6 1.6 0.00 0.00 0.00 88 1015.0
20260505112627 11 198 3.2 3.2 0.00 0.00 0.00 88 1015.1
20260505112126 11 93 0.0 1.6 0.00 0.00 0.00 88 1014.9
20260505111625 11 129 0.0 0.0 0.00 0.00 0.00 88 1014.9
20260505111121 11 135 0.0 0.0 0.00 0.00 0.00 88 1014.8
20260505110618 11 142 0.0 1.6 0.00 0.00 0.00 88 1014.9
20260505110115 11 79 1.6 3.2 0.00 0.00 0.00 88 1014.9
20260505102051 12 211 1.6 3.2 0.00 0.00 0.00 88 1014.6
20260505101549 12 237 1.6 1.6 0.00 0.00 0.00 88 1014.5
20260505101045 12 148 0.0 0.0 0.00 0.00 0.00 88 1014.5
20260505100542 12 194 0.0 0.0 0.00 0.00 0.00 88 1014.5
20260505100039 12 153 0.0 0.0 0.00 0.00 0.00 88 1014.5
20260505095535 12 112 0.0 0.0 0.00 0.00 0.00 88 1014.6
20260505095031 12 119 0.0 0.0 0.00 0.00 0.00 88 1014.4
20260505094528 12 111 0.0 0.0 0.00 0.00 0.00 88 1014.6
20260505094024 12 157 0.0 0.0 0.00 0.00 0.00 88 1014.6
20260505093521 12 155 0.0 0.0 0.00 0.00 0.00 88 1014.3
20260505093018 12 123 0.0 0.0 0.00 0.00 0.00 88 1014.3
20260505092516 12 123 0.0 0.0 0.00 0.00 0.00 88 1014.1
20260505092014 12 204 3.2 3.2 0.00 0.00 0.00 88 1014.3
20260505091511 12 152 0.0 0.0 0.00 0.00 0.00 88 1014.3
20260505091009 12 134 0.0 0.0 0.00 0.00 0.00 88 1014.2
20260505090506 12 186 0.0 0.0 0.00 0.00 0.00 88 1014.2
20260505090004 12 144 0.0 0.0 0.00 0.00 0.00 88 1014.2
20260505085501 12 188 0.0 0.0 0.00 0.00 0.00 88 1014.2
20260505084959 12 109 0.0 0.0 0.00 0.00 0.00 89 1014.4
20260505084457 12 136 0.0 0.0 0.00 0.00 0.00 89 1014.1
20260505083955 12 145 0.0 0.0 0.00 0.00 0.00 89 1013.9
20260505083452 12 118 1.6 1.6 0.00 0.00 0.00 89 1014.2
20260505082948 12 118 0.0 0.0 0.00 0.00 0.00 89 1014.0
20260505082444 12 209 3.2 4.8 0.00 0.00 0.00 89 1013.8
20260505081942 12 163 1.6 1.6 0.00 0.00 0.00 89 1014.0
20260505081438 12 97 0.0 0.0 0.00 0.00 0.00 89 1014.2
20260505080934 12 139 1.6 1.6 0.00 0.00 0.00 89 1014.0
20260505080431 12 122 1.6 1.6 0.00 0.00 0.00 89 1013.9
20260505075926 12 207 3.2 3.2 0.00 0.00 0.00 89 1013.9
20260505075423 12 165 1.6 3.2 0.00 0.00 0.00 88 1014.1
20260505074921 12 179 0.0 0.0 0.00 0.00 0.00 89 1014.1
20260505074418 12 98 0.0 0.0 0.00 0.00 0.00 89 1013.9
20260505073915 12 30 0.0 0.0 0.00 0.00 0.00 89 1013.8
20260505073413 12 128 0.0 1.6 0.00 0.00 0.00 89 1013.8
20260505072910 12 124 0.0 0.0 0.00 0.00 0.00 89 1013.8
20260505072406 11 142 0.0 0.0 0.00 0.00 0.00 89 1013.8
20260505071902 11 121 0.0 0.0 0.00 0.00 0.00 89 1013.7
20260505071358 11 127 0.0 0.0 0.00 0.00 0.00 89 1013.6
20260505070857 11 114 0.0 0.0 0.00 0.00 0.00 89 1013.5
20260505070353 11 125 0.0 0.0 0.00 0.00 0.00 89 1013.4
20260505065848 11 137 0.0 0.0 0.00 0.00 0.00 89 1013.4
20260505065345 11 140 0.0 0.0 0.00 0.00 0.00 88 1013.7
20260505064842 12 134 0.0 0.0 0.00 0.00 0.00 88 1013.3
20260505064339 12 141 0.0 0.0 0.00 0.00 0.00 88 1013.3
20260505063837 12 125 0.0 0.0 0.00 0.00 0.00 88 1013.1
20260505063333 12 140 0.0 0.0 0.00 0.00 0.00 88 1013.1
20260505062830 12 119 0.0 0.0 0.00 0.00 0.00 87 1013.2
20260505062327 12 118 0.0 0.0 0.00 0.00 0.00 88 1013.1
20260505061824 12 171 0.0 0.0 0.00 0.00 0.00 87 1013.2
20260505061322 12 191 1.6 1.6 0.00 0.00 0.00 87 1012.8
20260505060819 12 165 0.0 0.0 0.00 0.00 0.00 87 1012.7
20260505060316 12 126 0.0 0.0 0.00 0.00 0.00 87 1013.0
20260505055812 12 102 0.0 0.0 0.00 0.00 0.00 87 1012.8
20260505055308 12 125 0.0 0.0 0.00 0.00 0.00 86 1013.0
20260505054806 12 126 0.0 0.0 0.00 0.00 0.00 86 1012.7
20260505054303 12 146 0.0 0.0 0.00 0.00 0.00 86 1012.8
20260505053801 12 98 0.0 0.0 0.00 0.00 0.00 86 1012.6
20260505053257 12 118 0.0 0.0 0.00 0.00 0.00 86 1012.7
20260505052754 12 123 0.0 1.6 0.00 0.00 0.00 85 1012.5
20260505052251 12 120 0.0 0.0 0.00 0.00 0.00 85 1012.8
20260505051748 12 196 0.0 1.6 0.00 0.00 0.00 85 1012.7
20260505051246 12 154 1.6 1.6 0.00 0.00 0.00 85 1012.6
20260505050744 13 150 0.0 1.6 0.00 0.00 0.00 84 1012.6
20260505050242 13 165 1.6 1.6 0.00 0.00 0.00 84 1012.5
20260505041712 13 192 0.0 1.6 0.00 0.00 0.00 81 1012.1
20260505041209 14 146 0.0 1.6 0.00 0.00 0.00 81 1012.1
20260505040706 14 146 1.6 1.6 0.00 0.00 0.00 80 1012.1
20260505040204 14 148 0.0 0.0 0.00 0.00 0.00 80 1011.9
20260505035700 15 201 3.2 3.2 0.00 0.00 0.00 80 1011.8
20260505035156 15 197 3.2 3.2 0.00 0.00 0.00 79 1011.7
20260505034653 15 148 3.2 3.2 0.00 0.00 0.00 79 1011.7
20260505034150 15 191 1.6 1.6 0.00 0.00 0.00 78 1011.8
20260505033646 15 204 3.2 3.2 0.00 0.00 0.00 77 1011.8
20260505033145 16 150 3.2 3.2 0.00 0.00 0.00 76 1011.7
20260505032643 16 144 0.0 0.0 0.00 0.00 0.00 75 1011.7
20260505032138 16 142 0.0 0.0 0.00 0.00 0.00 75 1011.6
20260505031636 16 145 1.6 1.6 0.00 0.00 0.00 74 1011.4
20260505031132 16 209 3.2 3.2 0.00 0.00 0.00 74 1011.5
20260505030629 17 152 0.0 0.0 0.00 0.00 0.00 73 1011.4
20260505030125 17 192 1.6 1.6 0.00 0.00 0.00 72 1011.3
20260505025621 17 195 1.6 1.6 0.00 0.00 0.00 72 1011.2
20260505025120 18 189 1.6 1.6 0.00 0.00 0.00 71 1011.3
20260505024617 18 202 3.2 3.2 0.00 0.00 0.00 71 1011.3
20260505024114 18 171 1.6 1.6 0.00 0.00 0.00 70 1011.2
20260505023611 18 208 1.6 1.6 0.00 0.00 0.00 69 1011.3
20260505023109 19 196 1.6 1.6 0.00 0.00 0.00 67 1011.3
20260505022606 19 202 3.2 3.2 0.00 0.00 0.00 66 1010.9
20260505022103 19 194 1.6 3.2 0.00 0.00 0.00 66 1011.1
20260505021559 20 198 1.6 1.6 0.00 0.00 0.00 65 1011.2
20260505021056 20 178 1.6 1.6 0.00 0.00 0.00 65 1011.1
20260505020556 20 120 1.6 1.6 0.00 0.00 0.00 64 1011.3
20260505020053 21 212 1.6 1.6 0.00 0.00 0.00 63 1011.2
20260505015550 21 202 1.6 3.2 0.00 0.00 0.00 62 1011.2
20260505015047 21 195 1.6 1.6 0.00 0.00 0.00 61 1011.1
20260505014544 21 188 0.0 1.6 0.00 0.00 0.00 60 1011.2
20260505014041 21 135 1.6 3.2 0.00 0.00 0.00 60 1011.0
20260505013538 22 176 0.0 0.0 0.00 0.00 0.00 59 1010.8
20260505013036 22 118 1.6 1.6 0.00 0.00 0.00 59 1011.1
20260505012533 22 145 0.0 1.6 0.00 0.00 0.00 59 1011.0
20260505012030 22 198 3.2 3.2 0.00 0.00 0.00 57 1011.1
20260505011525 22 110 0.0 0.0 0.00 0.00 0.00 56 1011.0
20260505011023 22 160 1.6 1.6 0.00 0.00 0.00 56 1010.9
20260505010518 22 114 0.0 0.0 0.00 0.00 0.00 54 1011.1
20260505010015 22 97 0.0 0.0 0.00 0.00 0.00 54 1010.8
20260505005512 23 169 0.0 0.0 0.00 0.00 0.00 53 1011.0
20260505005009 23 109 0.0 0.0 0.00 0.00 0.00 54 1011.0
20260505004506 23 139 0.0 0.0 0.00 0.00 0.00 55 1011.0
20260505004003 23 72 0.0 0.0 0.00 0.00 0.00 52 1011.1
20260505003500 23 172 0.0 0.0 0.00 0.00 0.00 53 1011.1
20260505002956 23 133 0.0 0.0 0.00 0.00 0.00 52 1010.9
20260505002452 23 109 0.0 0.0 0.00 0.00 0.00 52 1011.0
20260505001951 23 218 3.2 3.2 0.00 0.00 0.00 50 1010.8
20260505001448 23 113 0.0 0.0 0.00 0.00 0.00 52 1010.9
20260505000945 23 220 3.2 3.2 0.00 0.00 0.00 52 1010.8
20260505000443 23 155 1.6 1.6 0.00 0.00 0.00 51 1011.0
20260504235940 23 208 1.6 1.6 0.00 0.00 0.00 53 1010.9
20260504235437 23 166 1.6 3.2 0.00 0.00 0.00 53 1010.9
20260504234933 23 150 0.0 1.6 0.00 0.00 0.00 52 1011.0
20260504234431 23 106 0.0 0.0 0.00 0.00 0.00 52 1010.8
20260504233927 24 108 1.6 1.6 0.00 0.00 0.00 52 1011.0
20260504233423 24 115 0.0 0.0 0.00 0.00 0.00 53 1011.0
20260504232920 24 130 0.0 0.0 0.00 0.00 0.00 53 1011.1
20260504232417 23 203 0.0 0.0 0.00 0.00 0.00 56 1011.0
20260504231914 23 144 0.0 0.0 0.00 0.00 0.00 53 1010.9
20260504231410 24 205 1.6 1.6 0.00 0.00 0.00 53 1010.8
20260504230907 24 181 1.6 1.6 0.00 0.00 0.00 54 1011.0
20260504230404 24 210 3.2 3.2 0.00 0.00 0.00 53 1011.2
20260504225903 23 155 0.0 1.6 0.00 0.00 0.00 52 1011.1
20260504225358 23 216 0.0 1.6 0.00 0.00 0.00 53 1011.3
20260504224856 23 149 1.6 3.2 0.00 0.00 0.00 52 1011.4
20260504224353 23 208 3.2 3.2 0.00 0.00 0.00 51 1011.5
20260504223849 23 215 3.2 3.2 0.00 0.00 0.00 53 1011.7
20260504223345 23 202 3.2 3.2 0.00 0.00 0.00 51 1011.8
20260504222842 23 109 1.6 1.6 0.00 0.00 0.00 51 1011.6
20260504222338 23 109 0.0 1.6 0.00 0.00 0.00 52 1011.6
20260504221837 23 128 1.6 1.6 0.00 0.00 0.00 54 1011.7
20260504221333 23 215 1.6 1.6 0.00 0.00 0.00 56 1011.6
20260504220831 23 218 4.8 4.8 0.00 0.00 0.00 54 1011.5
20260504220327 24 193 1.6 1.6 0.00 0.00 0.00 55 1012.0
20260504215825 25 186 1.6 1.6 0.00 0.00 0.00 51 1011.8
20260504215321 25 46 1.6 1.6 0.00 0.00 0.00 48 1011.7
20260504214817 25 102 0.0 0.0 0.00 0.00 0.00 49 1011.8
20260504214314 25 88 0.0 0.0 0.00 0.00 0.00 48 1012.1
20260504213810 23 119 0.0 1.6 0.00 0.00 0.00 52 1011.9
20260504213306 24 128 0.0 1.6 0.00 0.00 0.00 50 1011.7
20260504212804 24 62 0.0 0.0 0.00 0.00 0.00 52 1011.9
20260504212300 25 117 0.0 0.0 0.00 0.00 0.00 48 1011.9
20260504211758 25 112 1.6 1.6 0.00 0.00 0.00 49 1012.1
20260504211254 23 109 0.0 0.0 0.00 0.00 0.00 52 1012.0
20260504210751 23 108 0.0 0.0 0.00 0.00 0.00 53 1012.1
20260504210248 23 224 1.6 3.2 0.00 0.00 0.00 53 1012.1
20260504205745 24 111 0.0 0.0 0.00 0.00 0.00 50 1012.2
20260504205243 23 98 0.0 0.0 0.00 0.00 0.00 57 1012.0
20260504204741 22 204 4.8 4.8 0.00 0.00 0.00 54 1012.3
20260504204239 23 134 0.0 1.6 0.00 0.00 0.00 53 1012.3
20260504203738 23 209 3.2 3.2 0.00 0.00 0.00 53 1012.2
20260504203235 23 64 0.0 0.0 0.00 0.00 0.00 54 1012.6
20260504202735 24 102 1.6 1.6 0.00 0.00 0.00 51 1012.2
20260504202232 24 111 0.0 0.0 0.00 0.00 0.00 51 1012.2
20260504201730 23 206 3.2 3.2 0.00 0.00 0.00 53 1012.0
20260504201227 23 123 0.0 0.0 0.00 0.00 0.00 54 1012.0
20260504200725 24 103 0.0 0.0 0.00 0.00 0.00 52 1012.1
20260504200220 24 137 0.0 1.6 0.00 0.00 0.00 53 1012.1
20260504195717 24 148 0.0 0.0 0.00 0.00 0.00 54 1012.1
20260504195213 23 98 0.0 0.0 0.00 0.00 0.00 55 1012.4
20260504194710 23 105 0.0 0.0 0.00 0.00 0.00 55 1012.3
20260504194206 23 101 0.0 0.0 0.00 0.00 0.00 56 1012.2
20260504193702 23 171 0.0 0.0 0.00 0.00 0.00 55 1012.1
20260504193200 22 95 0.0 0.0 0.00 0.00 0.00 57 1012.5
20260504192658 22 107 0.0 0.0 0.00 0.00 0.00 58 1012.4
20260504192156 22 102 0.0 0.0 0.00 0.00 0.00 57 1012.5
20260504191654 22 215 1.6 1.6 0.00 0.00 0.00 58 1012.5
20260504191150 22 201 1.6 1.6 0.00 0.00 0.00 58 1012.5
20260504190646 22 121 0.0 0.0 0.00 0.00 0.00 58 1012.5
20260504190143 22 74 0.0 1.6 0.00 0.00 0.00 56 1012.4
20260504185639 22 206 0.0 0.0 0.00 0.00 0.00 58 1012.6
20260504185136 21 137 1.6 1.6 0.00 0.00 0.00 60 1012.5
20260504184632 22 107 0.0 0.0 0.00 0.00 0.00 57 1012.5
20260504184127 22 81 0.0 0.0 0.00 0.00 0.00 58 1012.7
20260504183624 22 102 1.6 1.6 0.00 0.00 0.00 60 1012.7
20260504183122 21 110 0.0 0.0 0.00 0.00 0.00 61 1012.6
20260504182620 21 136 3.2 3.2 0.00 0.00 0.00 61 1012.6
20260504182117 21 110 1.6 1.6 0.00 0.00 0.00 61 1012.6
20260504181614 21 197 0.0 1.6 0.00 0.00 0.00 61 1012.5
20260504181111 21 102 0.0 0.0 0.00 0.00 0.00 60 1012.8
20260504180611 21 105 0.0 0.0 0.00 0.00 0.00 61 1012.7
20260504180109 20 105 0.0 0.0 0.00 0.00 0.00 61 1012.6
20260504175606 20 103 0.0 1.6 0.00 0.00 0.00 63 1012.5
20260504175103 20 112 0.0 0.0 0.00 0.00 0.00 66 1012.6
20260504174601 19 198 1.6 1.6 0.00 0.00 0.00 67 1012.7
20260504174057 19 91 0.0 0.0 0.00 0.00 0.00 67 1012.6
20260504173554 18 108 0.0 0.0 0.00 0.00 0.00 68 1012.5
20260504173052 18 189 1.6 1.6 0.00 0.00 0.00 68 1012.5
20260504172547 18 114 0.0 0.0 0.00 0.00 0.00 69 1012.4
20260504172044 18 129 0.0 0.0 0.00 0.00 0.00 70 1012.3
20260504171541 18 111 0.0 0.0 0.00 0.00 0.00 71 1012.5
20260504171038 18 113 0.0 0.0 0.00 0.00 0.00 70 1012.7
20260504170534 17 97 0.0 0.0 0.00 0.00 0.00 70 1012.4
20260504150918 13 77 0.0 0.0 0.00 0.00 0.00 77 1011.9
20260504150415 13 81 0.0 0.0 0.00 0.00 0.00 77 1012.0
20260504140841 12 87 0.0 0.0 0.00 0.00 0.00 74 1011.5
20260504140337 12 90 0.0 0.0 0.00 0.00 0.00 73 1011.3
20260504130806 11 122 0.0 0.0 0.00 0.00 0.00 73 1011.0
20260504130302 12 122 0.0 0.0 0.00 0.00 0.00 74 1010.8